User: anonymous   Login
Location: Sawmill Trailhead
(33.5800°N, 116.4497°W)
Time: 20:37:41
(UTC-07:00)
Language:

Uosat F - Orbit

View from above orbital plane
View from above orbital plane
View from above satellite
View from above satellite

Ground track
Ground track

The orbit data is extracted from the following two-line orbital elements,

1 21575U 91050B   17176.48378167 +.00000009 +00000-0 +17411-4 0  9998
2 21575 098.7565 193.0880 0006140 276.9339 083.1150 14.40801905362271
Epoch (UTC): 25 June 2017 11:36:38
Eccentricity: 0.0006140
inclination: 98.7565°
perigee height: 751 km
apogee height: 760 km
right ascension of ascending node: 193.0880°
argument of perigee: 276.9339°
revolutions per day: 14.40801905
mean anomaly at epoch: 83.1150°
orbit number at epoch: 36227

The dashed part of the orbit path shows where the satellite is in the earth's shadow,  

DLR